SL-8 DEB, 1392

Orbit data source: Space-Track

SL-8 DEB, 1392 is space debris in LEO originally from a launch on Mon, 15 Mar 1965 UTC launched from the Tyuratam Missile And Space Complex (TTMTR). Debris objects in space refer to the collection of defunct objects orbiting the Earth. Examples of debris include non-operational satellites, rocket bodies, and fragments generated from explosions, collisions, or faulty payload assembly.

Loading next visibility...
Identifier
1392, 1965-020AH
Orbit
LEO
Last TLE update
18 hours ago
Origin
Manufacturer
Unknown
Mission
Spacecraft
Bus & Motor
Unknown
Mass
Unknown
Launch date (UTC)
1965-03-15 (60 years ago)
Launch vehicle
Unknown
Launch site
Tyuratam Missile And Space Complex (TTMTR)
Object type
Payload
Rocket body
Debris
Shape & HBR
Unknown
Radar Cross Section
Medium (>0.1 m² and <1 m²)

Expand to show TLE details & history

TLE from 18 hours ago
0 SL-8 DEB
1 01392U 65020AH  25181.62105730  .00011680  00000-0  75413-3 0  9998
2 01392  55.8636 257.0589 0196130  22.3911 338.5523 14.94240783 43158
Epoch: 2025-06-30T14:54Z
TLE epoch observation values (Epoch: 2025-06-30T14:54:19.35Z)
Latitude
-0.00007°
Longitude
114.54999°
Altitude
459.157 km
Speed
7.707 km/s
True Right ascension
17h 08m 14s
True Declination
0° 00' 00"
Sunlit
Object was in full shadow at epoch
Visualization orbit readout
Latitude
-4.97897°
Longitude
108.15822°
Altitude
467.507 km
Speed
7.698 km/s
Apparent Right ascension
13h 40m 58s
Apparent Declination
-40° 42' 29"
Sunlit
Object is in full shadow
Visualization observer readout
Local Sidereal Time
20:10:34
Azimuth
239.796° WSW
Elevation
-29.563°
Doppler factor
1
Orbital elements
Apogee altitude
721.119 km
Perigee altitude
448 km
Semi-major axis
6,962.697 km
Eccentricity
0.01961
Inclination
55.8636°
RAAN
257.0589°
Arg. of periapsis
22.3911°
True anomaly
Unknown
Mean anomaly
338.5523°
Eccentric anomaly
Unknown
Mean motion
3.73574 °/min
Orbital period
96.37 mins
BSTAR
0.00075413
Loading maneuver chart data...
Loading SW <> Apogee altitude chart data...
Loading historical data...
Loading historical data...
Loading historical data...
Loading historical data...
Loading historical data...
Loading historical data...
Loading historical data...

SL-8 DEB Visibility forecast

Observer location: undefined°, undefined°

Span
Click to sort rows by Start time (UTC) header in descending order
Start Az.
Max El. time (UTC)
Max El. Az.
Max El.
End time (UTC)
End Az.
5 mins2025-07-01 08:47:26.523Z280.145° WNW2025-07-01 08:50:26.523Z340.635° N19.73°2025-07-01 08:52:26.523Z16.298° NNE
6 mins2025-07-01 13:51:26.523Z338.97° N2025-07-01 13:54:26.523Z39.335° NE27.642°2025-07-01 13:57:26.523Z92.622° ESE
7 mins2025-07-01 15:31:26.523Z293.877° NW2025-07-01 15:34:26.523Z230.968° WSW33.354°2025-07-01 15:38:26.523Z163.077° S
5 mins2025-07-02 07:13:26.523Z223.675° SW2025-07-02 07:15:26.523Z216.653° SW44.39°2025-07-02 07:18:26.523Z45.886° ENE
|